| time (UTC) | temp F | wind direction | speed MPH | gust MPH | rain 1hr in | rain 24hr in | rain mn in | humidity % | barometer mb |
| 20260505124626 | 67 | 350 | 0.0 | 0.0 | 0.01 | 0.39 | 0.39 | 85 | 1011.8 |
| 20260505124126 | 66 | 73 | 0.0 | 0.0 | 0.01 | 0.39 | 0.39 | 85 | 1011.7 |
| 20260505123626 | 65 | 69 | 0.0 | 0.0 | 0.00 | 0.38 | 0.38 | 87 | 1011.8 |
| 20260505123125 | 65 | 60 | 0.0 | 0.0 | 0.00 | 0.38 | 0.38 | 88 | 1011.8 |
| 20260505122625 | 65 | 67 | 0.0 | 0.0 | 0.00 | 0.38 | 0.38 | 88 | 1012.0 |
| 20260505122125 | 64 | 48 | 0.0 | 0.0 | 0.00 | 0.38 | 0.38 | 89 | 1012.1 |
| 20260505121625 | 64 | 27 | 0.0 | 0.0 | 0.00 | 0.38 | 0.38 | 90 | 1012.1 |
| 20260505121124 | 63 | 24 | 0.0 | 0.0 | 0.00 | 0.38 | 0.38 | 90 | 1012.2 |
| 20260505120624 | 63 | 23 | 0.0 | 0.0 | 0.00 | 0.38 | 0.38 | 91 | 1012.4 |
| 20260505120124 | 63 | 27 | 0.0 | 0.0 | 0.00 | 0.38 | 0.38 | 90 | 1012.3 |
| 20260505115623 | 63 | 28 | 0.0 | 0.0 | 0.00 | 0.38 | 0.38 | 91 | 1012.3 |
| 20260505115123 | 62 | 60 | 0.0 | 0.0 | 0.00 | 0.38 | 0.38 | 92 | 1012.3 |
| 20260505114623 | 62 | 79 | 0.0 | 0.0 | 0.00 | 0.38 | 0.38 | 92 | 1012.4 |
| 20260505114123 | 62 | 77 | 0.0 | 0.0 | 0.00 | 0.38 | 0.38 | 92 | 1012.4 |
| 20260505113622 | 62 | 98 | 0.0 | 0.0 | 0.00 | 0.38 | 0.38 | 93 | 1012.4 |
| 20260505113122 | 62 | 86 | 0.0 | 0.0 | 0.00 | 0.38 | 0.38 | 93 | 1012.4 |
| 20260505112622 | 62 | 122 | 0.0 | 0.0 | 0.00 | 0.38 | 0.38 | 93 | 1012.3 |
| 20260505112121 | 61 | 89 | 0.0 | 0.0 | 0.00 | 0.38 | 0.38 | 93 | 1012.2 |
| 20260505111621 | 61 | 90 | 0.0 | 0.0 | 0.00 | 0.38 | 0.38 | 93 | 1012.4 |
| 20260505111121 | 61 | 78 | 0.0 | 0.0 | 0.00 | 0.38 | 0.38 | 93 | 1012.4 |
| 20260505110621 | 61 | 84 | 0.0 | 0.0 | 0.00 | 0.38 | 0.38 | 93 | 1012.5 |
| 20260505110120 | 61 | 63 | 0.0 | 0.0 | 0.02 | 0.38 | 0.38 | 93 | 1012.6 |
| 20260505102118 | 60 | 54 | 0.0 | 0.0 | 0.09 | 0.38 | 0.38 | 92 | 1012.6 |
| 20260505101618 | 60 | 58 | 0.0 | 0.0 | 0.10 | 0.38 | 0.38 | 92 | 1012.7 |
| 20260505101117 | 60 | 112 | 0.0 | 0.0 | 0.10 | 0.38 | 0.38 | 92 | 1012.7 |
| 20260505100617 | 60 | 359 | 0.0 | 0.0 | 0.10 | 0.38 | 0.38 | 92 | 1012.6 |
| 20260505100117 | 60 | 68 | 0.0 | 0.0 | 0.08 | 0.36 | 0.36 | 91 | 1012.6 |
| 20260505095617 | 60 | 74 | 0.0 | 0.0 | 0.07 | 0.35 | 0.35 | 91 | 1012.8 |
| 20260505095116 | 60 | 120 | 0.0 | 0.0 | 0.04 | 0.32 | 0.32 | 91 | 1012.9 |
| 20260505094616 | 60 | 111 | 0.0 | 0.0 | 0.02 | 0.30 | 0.30 | 91 | 1012.9 |
| 20260505094116 | 60 | 80 | 0.0 | 0.0 | 0.01 | 0.29 | 0.29 | 91 | 1012.7 |
| 20260505093615 | 60 | 135 | 0.0 | 0.0 | 0.01 | 0.29 | 0.29 | 90 | 1012.7 |
| 20260505093115 | 60 | 81 | 0.0 | 0.0 | 0.01 | 0.29 | 0.29 | 90 | 1012.7 |
| 20260505092615 | 60 | 93 | 0.0 | 0.0 | 0.01 | 0.29 | 0.29 | 91 | 1012.6 |
| 20260505092115 | 60 | 85 | 0.0 | 0.0 | 0.01 | 0.29 | 0.29 | 90 | 1012.5 |
| 20260505091614 | 60 | 68 | 0.0 | 0.0 | 0.00 | 0.28 | 0.28 | 91 | 1012.5 |
| 20260505091114 | 60 | 343 | 0.0 | 0.0 | 0.00 | 0.28 | 0.28 | 91 | 1012.7 |
| 20260505090614 | 60 | 359 | 0.0 | 0.0 | 0.00 | 0.28 | 0.28 | 91 | 1012.9 |
| 20260505090113 | 59 | 276 | 0.0 | 0.0 | 0.00 | 0.28 | 0.28 | 91 | 1013.1 |
| 20260505085613 | 59 | 277 | 0.0 | 0.0 | 0.00 | 0.28 | 0.28 | 91 | 1012.9 |
| 20260505085113 | 59 | 359 | 0.0 | 0.0 | 0.00 | 0.28 | 0.28 | 91 | 1013.2 |
| 20260505084613 | 59 | 275 | 0.0 | 0.0 | 0.00 | 0.28 | 0.28 | 91 | 1013.3 |
| 20260505084112 | 59 | 148 | 0.0 | 0.0 | 0.00 | 0.28 | 0.28 | 91 | 1013.2 |
| 20260505083612 | 59 | 359 | 0.0 | 0.0 | 0.00 | 0.28 | 0.28 | 91 | 1013.1 |
| 20260505083112 | 59 | 143 | 0.0 | 0.0 | 0.00 | 0.28 | 0.28 | 91 | 1013.0 |
| 20260505082611 | 59 | 145 | 0.0 | 0.0 | 0.00 | 0.28 | 0.28 | 91 | 1012.9 |
| 20260505082111 | 59 | 145 | 0.0 | 0.0 | 0.00 | 0.28 | 0.28 | 92 | 1012.8 |
| 20260505081611 | 59 | 148 | 0.0 | 0.0 | 0.00 | 0.28 | 0.28 | 92 | 1012.7 |
| 20260505081110 | 59 | 142 | 0.0 | 0.0 | 0.00 | 0.28 | 0.28 | 91 | 1012.7 |
| 20260505080610 | 59 | 146 | 0.0 | 0.0 | 0.00 | 0.28 | 0.28 | 92 | 1012.5 |
| 20260505080110 | 58 | 144 | 0.0 | 0.0 | 0.00 | 0.28 | 0.28 | 92 | 1012.6 |
| 20260505075610 | 58 | 359 | 0.0 | 0.0 | 0.00 | 0.28 | 0.28 | 91 | 1012.7 |
| 20260505075109 | 58 | 154 | 0.0 | 0.0 | 0.01 | 0.28 | 0.28 | 91 | 1012.7 |
| 20260505074609 | 58 | 359 | 0.0 | 0.0 | 0.02 | 0.28 | 0.28 | 91 | 1012.7 |
| 20260505074109 | 57 | 154 | 0.0 | 0.0 | 0.03 | 0.28 | 0.28 | 91 | 1012.7 |
| 20260505073609 | 57 | 359 | 0.0 | 0.0 | 0.05 | 0.28 | 0.28 | 90 | 1012.8 |
| 20260505073108 | 57 | 154 | 0.0 | 0.0 | 0.07 | 0.28 | 0.28 | 90 | 1012.8 |
| 20260505072608 | 57 | 359 | 0.0 | 0.0 | 0.10 | 0.28 | 0.28 | 90 | 1012.9 |
| 20260505072108 | 57 | 155 | 0.0 | 0.0 | 0.12 | 0.28 | 0.28 | 90 | 1012.9 |
| 20260505071607 | 57 | 359 | 0.0 | 0.0 | 0.16 | 0.28 | 0.28 | 90 | 1012.9 |
| 20260505071107 | 57 | 152 | 0.0 | 0.0 | 0.19 | 0.28 | 0.28 | 90 | 1012.9 |
| 20260505070607 | 57 | 152 | 0.0 | 0.0 | 0.22 | 0.28 | 0.28 | 89 | 1013.0 |
| 20260505070106 | 57 | 151 | 0.0 | 0.0 | 0.24 | 0.28 | 0.28 | 89 | 1013.0 |
| 20260505065606 | 57 | 359 | 0.0 | 0.0 | 0.26 | 0.28 | 0.28 | 89 | 1012.9 |
| 20260505065106 | 57 | 155 | 0.0 | 0.0 | 0.26 | 0.27 | 0.27 | 89 | 1012.9 |
| 20260505064606 | 57 | 157 | 0.0 | 0.0 | 0.26 | 0.26 | 0.26 | 88 | 1013.2 |
| 20260505064106 | 57 | 152 | 0.0 | 0.0 | 0.25 | 0.25 | 0.25 | 88 | 1013.1 |
| 20260505063605 | 57 | 359 | 0.0 | 0.0 | 0.23 | 0.23 | 0.23 | 87 | 1013.0 |
| 20260505063105 | 58 | 157 | 0.0 | 0.0 | 0.21 | 0.21 | 0.21 | 86 | 1013.1 |
| 20260505062604 | 58 | 154 | 0.0 | 0.0 | 0.18 | 0.18 | 0.18 | 85 | 1013.2 |
| 20260505062104 | 58 | 159 | 0.0 | 0.0 | 0.16 | 0.16 | 0.16 | 85 | 1013.3 |
| 20260505061604 | 58 | 158 | 0.0 | 0.0 | 0.12 | 0.12 | 0.12 | 83 | 1013.3 |
| 20260505061104 | 59 | 157 | 0.0 | 0.0 | 0.09 | 0.09 | 0.09 | 83 | 1013.4 |
| 20260505060603 | 59 | 157 | 0.0 | 0.0 | 0.06 | 0.06 | 0.06 | 82 | 1013.3 |
| 20260505060103 | 59 | 199 | 0.0 | 0.0 | 0.04 | 0.04 | 0.04 | 81 | 1013.3 |
| 20260505055603 | 59 | 210 | 0.0 | 0.0 | 0.02 | 0.02 | 0.02 | 80 | 1013.2 |
| 20260505055102 | 59 | 210 | 0.0 | 0.0 | 0.01 | 0.01 | 0.01 | 78 | 1013.0 |
| 20260505054602 | 60 | 256 | 0.0 | 0.0 | 0.00 | 0.00 | 0.00 | 77 | 1012.8 |
| 20260505054102 | 60 | 198 | 0.0 | 0.0 | 0.00 | 0.00 | 0.00 | 76 | 1012.8 |
| 20260505053602 | 60 | 212 | 0.0 | 0.0 | 0.00 | 0.00 | 0.00 | 76 | 1012.7 |
| 20260505053101 | 60 | 233 | 0.0 | 0.0 | 0.00 | 0.00 | 0.00 | 75 | 1012.6 |
| 20260505052601 | 60 | 235 | 0.0 | 0.0 | 0.00 | 0.00 | 0.00 | 75 | 1012.6 |
| 20260505052101 | 60 | 213 | 0.0 | 0.0 | 0.00 | 0.00 | 0.00 | 75 | 1012.6 |
| 20260505051600 | 60 | 212 | 0.0 | 0.0 | 0.00 | 0.00 | 0.00 | 75 | 1012.7 |
| 20260505051100 | 60 | 210 | 0.0 | 0.0 | 0.00 | 0.00 | 0.00 | 75 | 1012.6 |
| 20260505050600 | 60 | 223 | 0.0 | 0.0 | 0.00 | 0.00 | 0.00 | 75 | 1012.6 |
| 20260505041557 | 62 | 162 | 0.0 | 0.0 | 0.00 | 0.00 | 0.00 | 68 | 1012.5 |
| 20260505041057 | 62 | 232 | 0.0 | 0.0 | 0.00 | 0.00 | 0.00 | 67 | 1012.5 |
| 20260505040556 | 62 | 203 | 0.0 | 0.0 | 0.00 | 0.00 | 0.00 | 66 | 1012.4 |
| 20260505040056 | 62 | 204 | 0.0 | 0.0 | 0.00 | 0.00 | 0.00 | 65 | 1012.4 |
| 20260505035556 | 62 | 154 | 0.0 | 0.0 | 0.00 | 0.00 | 0.00 | 64 | 1012.5 |
| 20260505035056 | 62 | 170 | 0.0 | 0.0 | 0.00 | 0.00 | 0.00 | 64 | 1012.5 |
| 20260505034555 | 62 | 233 | 0.0 | 0.0 | 0.00 | 0.00 | 0.00 | 63 | 1012.5 |
| 20260505034055 | 63 | 251 | 0.0 | 0.0 | 0.00 | 0.00 | 0.00 | 63 | 1012.6 |
| 20260505033555 | 63 | 209 | 0.0 | 0.0 | 0.00 | 0.00 | 0.00 | 62 | 1012.6 |
| 20260505033054 | 63 | 211 | 0.0 | 0.0 | 0.00 | 0.00 | 0.00 | 61 | 1012.6 |
| 20260505032554 | 63 | 236 | 0.0 | 0.0 | 0.00 | 0.00 | 0.00 | 61 | 1012.7 |
| 20260505032054 | 63 | 218 | 0.0 | 0.0 | 0.00 | 0.00 | 0.00 | 61 | 1012.8 |
| 20260505031554 | 63 | 213 | 0.0 | 0.0 | 0.00 | 0.00 | 0.00 | 60 | 1012.8 |
| 20260505031053 | 63 | 224 | 0.0 | 0.0 | 0.00 | 0.00 | 0.00 | 60 | 1012.9 |
| 20260505030553 | 63 | 228 | 0.0 | 0.0 | 0.00 | 0.00 | 0.00 | 60 | 1012.8 |
| 20260505030053 | 63 | 212 | 0.0 | 0.0 | 0.00 | 0.00 | 0.00 | 59 | 1012.9 |
| 20260505025552 | 63 | 195 | 0.0 | 0.0 | 0.00 | 0.00 | 0.00 | 59 | 1012.9 |
| 20260505025052 | 63 | 203 | 0.0 | 0.0 | 0.00 | 0.00 | 0.00 | 59 | 1013.0 |
| 20260505024552 | 63 | 209 | 0.0 | 0.0 | 0.00 | 0.00 | 0.00 | 59 | 1013.1 |
| 20260505024051 | 63 | 176 | 0.0 | 0.0 | 0.00 | 0.00 | 0.00 | 59 | 1013.1 |
| 20260505023551 | 63 | 198 | 0.0 | 0.0 | 0.00 | 0.00 | 0.00 | 59 | 1013.1 |
| 20260505023051 | 63 | 230 | 0.0 | 0.0 | 0.00 | 0.00 | 0.00 | 59 | 1013.3 |
| 20260505022551 | 63 | 184 | 0.0 | 0.0 | 0.00 | 0.00 | 0.00 | 59 | 1013.3 |
| 20260505022050 | 63 | 195 | 0.0 | 0.0 | 0.00 | 0.00 | 0.00 | 59 | 1013.3 |
| 20260505021550 | 63 | 211 | 0.0 | 0.0 | 0.00 | 0.00 | 0.00 | 59 | 1013.3 |
| 20260505021050 | 63 | 173 | 0.0 | 0.0 | 0.00 | 0.00 | 0.00 | 59 | 1013.4 |
| 20260505020550 | 63 | 190 | 0.0 | 0.0 | 0.00 | 0.00 | 0.00 | 59 | 1013.4 |
| 20260505020049 | 63 | 220 | 0.0 | 0.0 | 0.00 | 0.00 | 0.00 | 59 | 1013.4 |
| 20260505015549 | 63 | 199 | 0.0 | 0.0 | 0.00 | 0.00 | 0.00 | 59 | 1013.4 |
| 20260505015049 | 63 | 210 | 0.0 | 0.0 | 0.00 | 0.00 | 0.00 | 58 | 1013.5 |
| 20260505014548 | 63 | 216 | 0.0 | 0.0 | 0.00 | 0.00 | 0.00 | 58 | 1013.6 |
| 20260505014048 | 63 | 208 | 0.0 | 0.0 | 0.00 | 0.00 | 0.00 | 58 | 1013.7 |
| 20260505013548 | 63 | 184 | 0.0 | 0.0 | 0.00 | 0.00 | 0.00 | 58 | 1013.7 |
| 20260505013047 | 63 | 210 | 0.0 | 0.0 | 0.00 | 0.00 | 0.00 | 58 | 1013.7 |
| 20260505012547 | 63 | 182 | 0.0 | 0.0 | 0.00 | 0.00 | 0.00 | 58 | 1013.7 |
| 20260505012047 | 63 | 231 | 0.0 | 0.0 | 0.00 | 0.00 | 0.00 | 57 | 1013.8 |
| 20260505011547 | 63 | 169 | 0.0 | 0.0 | 0.00 | 0.00 | 0.00 | 57 | 1013.8 |
| 20260505011046 | 63 | 210 | 0.0 | 0.0 | 0.00 | 0.00 | 0.00 | 57 | 1013.9 |
| 20260505010546 | 63 | 237 | 0.0 | 0.0 | 0.00 | 0.00 | 0.00 | 57 | 1014.0 |
| 20260505010046 | 63 | 186 | 0.0 | 0.0 | 0.00 | 0.00 | 0.00 | 56 | 1014.1 |
| 20260505005545 | 63 | 210 | 0.0 | 0.0 | 0.00 | 0.00 | 0.00 | 56 | 1014.2 |
| 20260505005045 | 63 | 185 | 0.0 | 0.0 | 0.00 | 0.00 | 0.00 | 56 | 1014.3 |
| 20260505004545 | 63 | 182 | 0.0 | 0.0 | 0.00 | 0.00 | 0.00 | 56 | 1014.4 |
| 20260505004045 | 63 | 174 | 0.0 | 0.0 | 0.00 | 0.00 | 0.00 | 56 | 1014.4 |
| 20260505003544 | 63 | 199 | 0.0 | 0.0 | 0.00 | 0.00 | 0.00 | 56 | 1014.4 |
| 20260505003044 | 63 | 227 | 0.0 | 0.0 | 0.00 | 0.00 | 0.00 | 55 | 1014.3 |
| 20260505002544 | 63 | 220 | 0.0 | 0.0 | 0.00 | 0.00 | 0.00 | 55 | 1014.3 |
| 20260505002043 | 63 | 222 | 0.0 | 0.0 | 0.00 | 0.00 | 0.00 | 55 | 1014.4 |
| 20260505001543 | 63 | 172 | 0.0 | 0.0 | 0.00 | 0.00 | 0.00 | 54 | 1014.5 |
| 20260505001043 | 64 | 230 | 0.0 | 0.0 | 0.00 | 0.00 | 0.00 | 54 | 1014.5 |
| 20260505000543 | 64 | 232 | 0.0 | 0.0 | 0.00 | 0.00 | 0.00 | 54 | 1014.6 |
| 20260505000042 | 64 | 241 | 0.0 | 0.0 | 0.00 | 0.00 | 0.00 | 54 | 1014.6 |
| 20260504235542 | 64 | 231 | 0.0 | 0.0 | 0.00 | 0.00 | 0.00 | 54 | 1014.7 |
| 20260504235042 | 64 | 202 | 0.0 | 0.0 | 0.00 | 0.00 | 0.00 | 53 | 1014.6 |
| 20260504234541 | 64 | 230 | 0.0 | 0.0 | 0.00 | 0.00 | 0.00 | 54 | 1014.6 |
| 20260504234041 | 64 | 221 | 0.0 | 0.0 | 0.00 | 0.00 | 0.00 | 53 | 1014.6 |
| 20260504233541 | 64 | 258 | 0.0 | 0.0 | 0.00 | 0.00 | 0.00 | 53 | 1014.7 |
| 20260504233041 | 64 | 208 | 0.0 | 0.0 | 0.00 | 0.00 | 0.00 | 53 | 1014.7 |
| 20260504232540 | 64 | 228 | 0.0 | 0.0 | 0.00 | 0.00 | 0.00 | 53 | 1014.9 |
| 20260504232040 | 65 | 198 | 0.0 | 0.0 | 0.00 | 0.00 | 0.00 | 52 | 1014.9 |
| 20260504231540 | 65 | 260 | 0.0 | 0.0 | 0.00 | 0.00 | 0.00 | 52 | 1014.9 |
| 20260504231039 | 65 | 196 | 0.0 | 0.0 | 0.00 | 0.00 | 0.00 | 52 | 1014.9 |
| 20260504230539 | 65 | 216 | 0.0 | 0.0 | 0.00 | 0.00 | 0.00 | 52 | 1014.9 |
| 20260504230039 | 65 | 197 | 0.0 | 0.0 | 0.00 | 0.00 | 0.00 | 51 | 1015.0 |
| 20260504225539 | 65 | 208 | 0.0 | 0.0 | 0.00 | 0.00 | 0.00 | 51 | 1014.9 |
| 20260504225038 | 65 | 171 | 0.0 | 0.0 | 0.00 | 0.00 | 0.00 | 52 | 1015.0 |
| 20260504224538 | 65 | 199 | 0.0 | 0.0 | 0.00 | 0.00 | 0.00 | 52 | 1015.1 |
| 20260504224038 | 65 | 209 | 0.0 | 0.0 | 0.00 | 0.00 | 0.00 | 51 | 1015.1 |
| 20260504223537 | 65 | 201 | 0.0 | 0.0 | 0.00 | 0.00 | 0.00 | 52 | 1015.1 |
| 20260504223037 | 65 | 195 | 0.0 | 0.0 | 0.00 | 0.00 | 0.00 | 51 | 1015.1 |
| 20260504222537 | 65 | 222 | 0.0 | 0.0 | 0.00 | 0.00 | 0.00 | 52 | 1015.1 |
| 20260504222036 | 66 | 212 | 0.0 | 0.0 | 0.00 | 0.00 | 0.00 | 52 | 1015.1 |
| 20260504221536 | 66 | 182 | 0.0 | 0.0 | 0.00 | 0.00 | 0.00 | 51 | 1015.2 |
| 20260504221036 | 66 | 216 | 0.0 | 0.0 | 0.00 | 0.00 | 0.00 | 51 | 1015.2 |
| 20260504220536 | 66 | 180 | 0.0 | 0.0 | 0.00 | 0.00 | 0.00 | 52 | 1015.2 |
| 20260504220035 | 66 | 228 | 0.0 | 0.0 | 0.00 | 0.00 | 0.00 | 52 | 1015.2 |
| 20260504215535 | 66 | 247 | 0.0 | 0.0 | 0.00 | 0.00 | 0.00 | 53 | 1015.2 |
| 20260504215035 | 66 | 202 | 0.0 | 0.0 | 0.00 | 0.00 | 0.00 | 53 | 1015.1 |
| 20260504214535 | 66 | 243 | 0.0 | 0.0 | 0.00 | 0.00 | 0.00 | 54 | 1015.2 |
| 20260504214034 | 66 | 206 | 0.0 | 0.0 | 0.00 | 0.00 | 0.00 | 55 | 1015.2 |
| 20260504213534 | 66 | 213 | 0.0 | 0.0 | 0.00 | 0.00 | 0.00 | 55 | 1015.2 |
| 20260504213034 | 66 | 211 | 0.0 | 0.0 | 0.00 | 0.00 | 0.00 | 55 | 1015.3 |
| 20260504212533 | 66 | 187 | 0.0 | 0.0 | 0.00 | 0.00 | 0.00 | 55 | 1015.2 |
| 20260504212033 | 66 | 169 | 0.0 | 0.0 | 0.00 | 0.00 | 0.00 | 55 | 1015.3 |
| 20260504211533 | 67 | 216 | 0.0 | 0.0 | 0.00 | 0.00 | 0.00 | 55 | 1015.3 |
| 20260504211033 | 67 | 233 | 0.0 | 0.0 | 0.00 | 0.00 | 0.00 | 55 | 1015.4 |
| 20260504210532 | 67 | 182 | 0.0 | 0.0 | 0.00 | 0.00 | 0.00 | 55 | 1015.4 |
| 20260504210032 | 67 | 203 | 0.0 | 0.0 | 0.00 | 0.00 | 0.00 | 55 | 1015.3 |
| 20260504205532 | 67 | 160 | 0.0 | 0.0 | 0.00 | 0.00 | 0.00 | 55 | 1015.2 |
| 20260504205031 | 67 | 181 | 0.0 | 0.0 | 0.00 | 0.00 | 0.00 | 54 | 1015.3 |
| 20260504204531 | 67 | 182 | 0.0 | 0.0 | 0.00 | 0.00 | 0.00 | 54 | 1015.3 |
| 20260504204031 | 67 | 137 | 0.0 | 0.0 | 0.00 | 0.00 | 0.00 | 54 | 1015.3 |
| 20260504203531 | 67 | 178 | 0.0 | 0.0 | 0.00 | 0.00 | 0.00 | 53 | 1015.3 |
| 20260504203030 | 67 | 172 | 0.0 | 0.0 | 0.00 | 0.00 | 0.00 | 53 | 1015.2 |
| 20260504202530 | 67 | 231 | 0.0 | 0.0 | 0.00 | 0.00 | 0.00 | 53 | 1015.3 |
| 20260504202030 | 67 | 220 | 0.0 | 0.0 | 0.00 | 0.00 | 0.00 | 53 | 1015.2 |
| 20260504201529 | 67 | 219 | 0.0 | 0.0 | 0.00 | 0.00 | 0.00 | 54 | 1015.2 |
| 20260504201029 | 67 | 228 | 0.0 | 0.0 | 0.00 | 0.00 | 0.00 | 54 | 1015.2 |
| 20260504200529 | 67 | 201 | 0.0 | 0.0 | 0.00 | 0.00 | 0.00 | 55 | 1015.1 |
| 20260504200028 | 67 | 166 | 0.0 | 0.0 | 0.00 | 0.00 | 0.00 | 54 | 1015.2 |
| 20260504195621 | 67 | 216 | 0.0 | 0.0 | 0.00 | 0.00 | 0.00 | 54 | 1015.2 |
| 20260504195528 | 67 | 216 | 0.0 | 0.0 | 0.00 | 0.00 | 0.00 | 54 | 1015.2 |
| 20260504195028 | 67 | 172 | 0.0 | 0.0 | 0.00 | 0.00 | 0.00 | 54 | 1015.1 |
| 20260504194528 | 67 | 180 | 0.0 | 0.0 | 0.00 | 0.00 | 0.00 | 53 | 1015.1 |
| 20260504194027 | 67 | 179 | 0.0 | 0.0 | 0.00 | 0.00 | 0.00 | 52 | 1015.0 |
| 20260504193527 | 68 | 199 | 0.0 | 0.0 | 0.00 | 0.00 | 0.00 | 52 | 1015.0 |
| 20260504193027 | 68 | 191 | 0.0 | 0.0 | 0.00 | 0.00 | 0.00 | 51 | 1014.9 |
| 20260504192526 | 68 | 198 | 0.0 | 0.0 | 0.00 | 0.00 | 0.00 | 50 | 1014.8 |
| 20260504192026 | 68 | 187 | 0.0 | 0.0 | 0.00 | 0.00 | 0.00 | 49 | 1014.8 |
| 20260504191526 | 68 | 174 | 0.0 | 0.0 | 0.00 | 0.00 | 0.00 | 49 | 1014.7 |
| 20260504191026 | 68 | 216 | 0.0 | 0.0 | 0.00 | 0.00 | 0.00 | 49 | 1014.7 |
| 20260504190525 | 68 | 170 | 0.0 | 0.0 | 0.00 | 0.00 | 0.00 | 48 | 1014.7 |
| 20260504190025 | 68 | 149 | 0.0 | 0.0 | 0.00 | 0.00 | 0.00 | 48 | 1014.7 |
| 20260504185525 | 68 | 189 | 0.0 | 0.0 | 0.00 | 0.00 | 0.00 | 48 | 1014.7 |
| 20260504185028 | 69 | 156 | 0.0 | 0.0 | 0.00 | 0.00 | 0.00 | 48 | 1014.7 |
| 20260504184524 | 69 | 170 | 0.0 | 0.0 | 0.00 | 0.00 | 0.00 | 47 | 1014.7 |
| 20260504184024 | 69 | 167 | 0.0 | 0.0 | 0.00 | 0.00 | 0.00 | 47 | 1014.7 |
| 20260504183524 | 69 | 210 | 0.0 | 0.0 | 0.00 | 0.00 | 0.00 | 46 | 1014.7 |
| 20260504183023 | 69 | 167 | 0.0 | 0.0 | 0.00 | 0.00 | 0.00 | 46 | 1014.7 |
| 20260504182523 | 70 | 174 | 0.0 | 0.0 | 0.00 | 0.00 | 0.00 | 45 | 1014.7 |
| 20260504182023 | 70 | 181 | 0.0 | 0.0 | 0.00 | 0.00 | 0.00 | 45 | 1014.7 |
| 20260504181522 | 70 | 172 | 0.0 | 0.0 | 0.00 | 0.00 | 0.00 | 44 | 1014.7 |
| 20260504181022 | 70 | 172 | 0.0 | 0.0 | 0.00 | 0.00 | 0.00 | 44 | 1014.6 |
| 20260504180522 | 71 | 162 | 0.0 | 0.0 | 0.00 | 0.00 | 0.00 | 44 | 1014.6 |
| 20260504180022 | 71 | 177 | 0.0 | 0.0 | 0.00 | 0.00 | 0.00 | 43 | 1014.6 |
| 20260504175521 | 72 | 156 | 0.0 | 0.0 | 0.00 | 0.00 | 0.00 | 42 | 1014.6 |
| 20260504175021 | 72 | 166 | 0.0 | 0.0 | 0.00 | 0.00 | 0.00 | 42 | 1014.5 |
| 20260504174521 | 72 | 170 | 0.0 | 0.0 | 0.00 | 0.00 | 0.00 | 41 | 1014.6 |
| 20260504174020 | 73 | 162 | 0.0 | 0.0 | 0.00 | 0.00 | 0.00 | 41 | 1014.5 |
| 20260504173520 | 73 | 175 | 0.0 | 0.0 | 0.00 | 0.00 | 0.00 | 40 | 1014.5 |
| 20260504173020 | 73 | 174 | 0.0 | 0.0 | 0.00 | 0.00 | 0.00 | 40 | 1014.5 |
| 20260504172520 | 73 | 203 | 0.0 | 0.0 | 0.00 | 0.00 | 0.00 | 39 | 1014.5 |
| 20260504172019 | 74 | 161 | 0.0 | 0.0 | 0.00 | 0.00 | 0.00 | 38 | 1014.5 |
| 20260504171519 | 74 | 205 | 0.0 | 0.0 | 0.00 | 0.00 | 0.00 | 37 | 1014.6 |
| 20260504171019 | 74 | 165 | 0.0 | 0.0 | 0.00 | 0.00 | 0.00 | 37 | 1014.6 |
| 20260504170518 | 75 | 181 | 0.0 | 0.0 | 0.00 | 0.00 | 0.00 | 36 | 1014.6 |
| 20260504151012 | 76 | 176 | 0.0 | 0.0 | 0.00 | 0.00 | 0.00 | 31 | 1014.9 |
| 20260504150512 | 76 | 177 | 0.0 | 0.0 | 0.00 | 0.00 | 0.00 | 30 | 1015.0 |
| 20260504141008 | 77 | 173 | 0.0 | 0.0 | 0.00 | 0.00 | 0.00 | 29 | 1015.2 |
| 20260504140508 | 78 | 189 | 0.0 | 0.0 | 0.00 | 0.00 | 0.00 | 27 | 1015.2 |
| 20260504130505 | 77 | 242 | 0.0 | 0.0 | 0.00 | 0.00 | 0.00 | 30 | 1015.8 |